"Period start","avg(HW err(1)/warn(2) (#))","avg(Visibility (m))","avg(Weather code (#))","avg(Precip intensity (mm/h))","min(HW err(1)/warn(2) (#))","max(HW err(1)/warn(2) (#))","std(HW err(1)/warn(2) (#))","med(HW err(1)/warn(2) (#))","min(Visibility (m))","max(Visibility (m))","std(Visibility (m))","med(Visibility (m))","min(Weather code (#))","max(Weather code (#))","std(Weather code (#))","med(Weather code (#))","min(Precip intensity (mm/h))","max(Precip intensity (mm/h))","std(Precip intensity (mm/h))","med(Precip intensity (mm/h))"
2014-06-08 00:00:00,1,43300,0,0.00,0,2,1,2,30886,50000,5857,43370,0,0,0,0,0.00,0.00,0.00,0.00
2014-06-08 00:10:00,0,48612,0,0.00,0,0,0,0,43890,50000,2122,50000,0,0,0,0,0.00,0.00,0.00,0.00
2014-06-08 00:20:00,0,49984,0,0.00,0,0,0,0,49844,50000,47,50000,0,0,0,0,0.00,0.00,0.00,0.00
2014-06-08 00:30:00,0,47432,0,0.00,0,0,0,0,39517,50000,3575,49036,0,0,0,0,0.00,0.00,0.00,0.00
2014-06-08 00:40:00,0,44321,0,0.00,0,2,1,0,32943,50000,5632,45430,0,0,0,0,0.00,0.00,0.00,0.00
2014-06-08 00:50:00,0,47695,0,0.00,0,2,1,0,41189,50000,3252,49350,0,0,0,0,0.00,0.00,0.00,0.00
2014-06-08 01:00:00,0,45848,0,0.00,0,0,0,0,34233,50000,5626,49142,0,0,0,0,0.00,0.00,0.00,0.00
2014-06-08 01:10:00,2,35913,0,0.00,0,2,1,2,23846,46146,6089,35249,0,0,0,0,0.00,0.00,0.00,0.00
2014-06-08 01:20:00,1,41183,0,0.00,0,2,1,0,28014,50000,8199,42084,0,0,0,0,0.00,0.00,0.00,0.00
2014-06-08 01:30:00,2,37325,0,0.00,0,2,1,2,22305,50000,10581,37809,0,0,0,0,0.00,0.00,0.00,0.00
2014-06-08 01:40:00,2,45193,0,0.00,0,2,1,2,36342,50000,3978,46465,0,0,0,0,0.00,0.00,0.00,0.00
2014-06-08 01:50:00,0,44705,0,0.00,0,0,0,0,30555,50000,7457,49232,0,0,0,0,0.00,0.00,0.00,0.00
2014-06-08 02:00:00,0,45056,0,0.00,0,2,1,0,26925,50000,7039,48894,0,0,0,0,0.00,0.00,0.00,0.00
2014-06-08 02:10:00,0,47376,0,0.00,0,0,0,0,31029,50000,5864,50000,0,0,0,0,0.00,0.00,0.00,0.00
2014-06-08 02:20:00,0,42751,0,0.00,0,0,0,0,19827,50000,8529,43348,0,0,0,0,0.00,0.00,0.00,0.00
2014-06-08 02:30:00,0,46773,0,0.00,0,0,0,0,38859,50000,3494,47327,0,0,0,0,0.00,0.00,0.00,0.00
2014-06-08 02:40:00,1,46649,0,0.00,0,2,1,0,39632,50000,3529,47821,0,0,0,0,0.00,0.00,0.00,0.00
2014-06-08 02:50:00,1,43581,0,0.00,0,2,1,1,24300,50000,9108,50000,0,0,0,0,0.00,0.00,0.00,0.00
2014-06-08 03:00:00,0,48684,0,0.00,0,0,0,0,44201,50000,1890,50000,0,0,0,0,0.00,0.00,0.00,0.00
2014-06-08 03:10:00,2,48419,0,0.00,0,2,1,2,43848,50000,1887,49035,0,0,0,0,0.00,0.00,0.00,0.00
2014-06-08 03:20:00,2,47692,0,0.00,0,2,1,2,41820,50000,3112,49310,0,0,0,0,0.00,0.00,0.00,0.00
2014-06-08 03:30:00,1,45577,0,0.00,0,2,1,2,33456,50000,5491,48590,0,0,0,0,0.00,0.00,0.00,0.00
2014-06-08 03:40:00,2,40783,0,0.00,2,2,0,2,32442,49885,5919,40814,0,0,0,0,0.00,0.00,0.00,0.00
2014-06-08 03:50:00,2,46658,0,0.00,2,2,0,2,37657,50000,4157,48780,0,0,0,0,0.00,0.00,0.00,0.00
2014-06-08 04:00:00,2,43294,0,0.00,2,2,0,2,32986,50000,4805,43040,0,0,0,0,0.00,0.00,0.00,0.00
2014-06-08 04:10:00,2,45297,0,0.00,2,2,0,2,37327,50000,3614,45952,0,0,0,0,0.00,0.00,0.00,0.00
2014-06-08 04:20:00,2,47382,0,0.00,2,2,0,2,43155,50000,2535,48276,0,0,0,0,0.00,0.00,0.00,0.00
2014-06-08 04:30:00,1,47680,0,0.00,0,2,1,0,42896,50000,2631,48339,0,0,0,0,0.00,0.00,0.00,0.00
2014-06-08 04:40:00,0,49213,0,0.00,0,0,0,0,44544,50000,1652,50000,0,0,0,0,0.00,0.00,0.00,0.00
2014-06-08 04:50:00,0,48276,0,0.00,0,0,0,0,42950,50000,2366,50000,0,0,0,0,0.00,0.00,0.00,0.00
2014-06-08 05:00:00,0,47852,0,0.00,0,0,0,0,42179,50000,2719,49585,0,0,0,0,0.00,0.00,0.00,0.00
2014-06-08 05:10:00,1,48926,0,0.00,0,2,1,1,43990,50000,1924,49882,0,0,0,0,0.00,0.00,0.00,0.00
2014-06-08 05:20:00,2,48669,0,0.00,0,2,1,2,42257,50000,2406,50000,0,0,0,0,0.00,0.00,0.00,0.00
2014-06-08 05:30:00,2,48869,0,0.00,0,2,1,2,42140,50000,2415,50000,0,0,0,0,0.00,0.00,0.00,0.00
2014-06-08 05:40:00,2,49037,0,0.00,2,2,0,2,41823,50000,2443,50000,0,0,0,0,0.00,0.00,0.00,0.00
2014-06-08 05:50:00,2,47524,0,0.00,2,2,0,2,37807,50000,4187,50000,0,0,0,0,0.00,0.00,0.00,0.00
2014-06-08 06:00:00,1,47436,0,0.00,0,2,1,2,41537,50000,2941,48448,0,0,0,0,0.00,0.00,0.00,0.00
2014-06-08 06:10:00,0,49165,0,0.00,0,0,0,0,46027,50000,1250,49773,0,0,0,0,0.00,0.00,0.00,0.00
2014-06-08 06:20:00,0,47234,0,0.00,0,0,0,0,37736,50000,3785,48919,0,0,0,0,0.00,0.00,0.00,0.00
2014-06-08 06:30:00,0,46221,0,0.00,0,0,0,0,32628,50000,4980,46975,0,0,0,0,0.00,0.00,0.00,0.00
2014-06-08 06:40:00,0,48978,0,0.00,0,0,0,0,45206,50000,1651,50000,0,0,0,0,0.00,0.00,0.00,0.00
2014-06-08 06:50:00,0,48488,0,0.00,0,0,0,0,41149,50000,2741,50000,0,0,0,0,0.00,0.00,0.00,0.00
2014-06-08 07:00:00,0,45767,0,0.00,0,0,0,0,37934,49858,3205,45944,0,0,0,0,0.00,0.00,0.00,0.00
2014-06-08 07:10:00,0,47637,0,0.00,0,0,0,0,41620,50000,3150,49342,0,0,0,0,0.00,0.00,0.00,0.00
2014-06-08 07:20:00,0,49603,0,0.00,0,0,0,0,46032,50000,1190,50000,0,0,0,0,0.00,0.00,0.00,0.00
2014-06-08 07:30:00,0,49200,0,0.00,0,0,0,0,47426,50000,1056,49986,0,0,0,0,0.00,0.00,0.00,0.00
2014-06-08 07:40:00,0,48596,0,0.00,0,0,0,0,46380,50000,1453,49008,0,0,0,0,0.00,0.00,0.00,0.00
2014-06-08 07:50:00,0,49395,0,0.00,0,0,0,0,44506,50000,1638,50000,0,0,0,0,0.00,0.00,0.00,0.00
2014-06-08 08:00:00,0,48346,0,0.00,0,0,0,0,41672,50000,2739,50000,0,0,0,0,0.00,0.00,0.00,0.00
2014-06-08 08:10:00,0,48748,0,0.00,0,0,0,0,38867,50000,3320,50000,0,0,0,0,0.00,0.00,0.00,0.00
2014-06-08 08:20:00,0,46494,0,0.00,0,0,0,0,38293,50000,3902,47616,0,0,0,0,0.00,0.00,0.00,0.00
2014-06-08 08:30:00,0,47755,0,0.00,0,0,0,0,41143,50000,3021,49690,0,0,0,0,0.00,0.00,0.00,0.00
2014-06-08 08:40:00,0,49775,0,0.00,0,0,0,0,48153,50000,554,50000,0,0,0,0,0.00,0.00,0.00,0.00
2014-06-08 08:50:00,0,47852,0,0.00,0,0,0,0,43313,50000,2783,49600,0,0,0,0,0.00,0.00,0.00,0.00
2014-06-08 09:00:00,0,49935,0,0.00,0,0,0,0,49347,50000,196,50000,0,0,0,0,0.00,0.00,0.00,0.00
2014-06-08 09:10:00,0,49392,0,0.00,0,0,0,0,45564,50000,1367,50000,0,0,0,0,0.00,0.00,0.00,0.00
2014-06-08 09:20:00,0,49995,0,0.00,0,0,0,0,49953,50000,14,50000,0,0,0,0,0.00,0.00,0.00,0.00
2014-06-08 09:30:00,0,49769,0,0.00,0,0,0,0,48340,50000,504,50000,0,0,0,0,0.00,0.00,0.00,0.00
2014-06-08 09:40:00,0,49682,0,0.00,0,0,0,0,46815,50000,956,50000,0,0,0,0,0.00,0.00,0.00,0.00
2014-06-08 09:50:00,0,50000,0,0.00,0,0,0,0,50000,50000,0,50000,0,0,0,0,0.00,0.00,0.00,0.00
2014-06-08 10:00:00,0,49232,0,0.00,0,0,0,0,45505,50000,1564,50000,0,0,0,0,0.00,0.00,0.00,0.00
2014-06-08 10:10:00,0,50000,0,0.00,0,0,0,0,50000,50000,0,50000,0,0,0,0,0.00,0.00,0.00,0.00
2014-06-08 10:20:00,0,49927,0,0.00,0,0,0,0,49269,50000,219,50000,0,0,0,0,0.00,0.00,0.00,0.00
2014-06-08 10:30:00,0,49811,0,0.00,0,0,0,0,48289,50000,510,50000,0,0,0,0,0.00,0.00,0.00,0.00
2014-06-08 10:40:00,0,50000,0,0.00,0,0,0,0,50000,50000,0,50000,0,0,0,0,0.00,0.00,0.00,0.00
2014-06-08 10:50:00,0,49934,0,0.00,0,0,0,0,49341,50000,198,50000,0,0,0,0,0.00,0.00,0.00,0.00
2014-06-08 11:00:00,0,50000,0,0.00,0,0,0,0,50000,50000,0,50000,0,0,0,0,0.00,0.00,0.00,0.00
2014-06-08 11:10:00,0,49640,0,0.00,0,0,0,0,47755,50000,691,50000,0,0,0,0,0.00,0.00,0.00,0.00
2014-06-08 11:20:00,0,50000,0,0.00,0,0,0,0,50000,50000,0,50000,0,0,0,0,0.00,0.00,0.00,0.00
2014-06-08 11:30:00,0,50000,0,0.00,0,0,0,0,50000,50000,0,50000,0,0,0,0,0.00,0.00,0.00,0.00
2014-06-08 11:40:00,0,50000,0,0.00,0,0,0,0,50000,50000,0,50000,0,0,0,0,0.00,0.00,0.00,0.00
2014-06-08 11:50:00,0,50000,0,0.00,0,0,0,0,50000,50000,0,50000,0,0,0,0,0.00,0.00,0.00,0.00
2014-06-08 12:00:00,0,50000,0,0.00,0,0,0,0,50000,50000,0,50000,0,0,0,0,0.00,0.00,0.00,0.00
2014-06-08 12:10:00,0,50000,0,0.00,0,0,0,0,50000,50000,0,50000,0,0,0,0,0.00,0.00,0.00,0.00
2014-06-08 12:20:00,0,49764,0,0.00,0,0,0,0,47637,50000,709,50000,0,0,0,0,0.00,0.00,0.00,0.00
2014-06-08 12:30:00,0,50000,0,0.00,0,0,0,0,50000,50000,0,50000,0,0,0,0,0.00,0.00,0.00,0.00
2014-06-08 12:40:00,0,50000,0,0.00,0,0,0,0,50000,50000,0,50000,0,0,0,0,0.00,0.00,0.00,0.00
2014-06-08 12:50:00,0,50000,0,0.00,0,0,0,0,50000,50000,0,50000,0,0,0,0,0.00,0.00,0.00,0.00
2014-06-08 13:00:00,0,49995,0,0.00,0,0,0,0,49949,50000,15,50000,0,0,0,0,0.00,0.00,0.00,0.00
2014-06-08 13:10:00,0,47842,0,0.00,0,0,0,0,37436,50000,4084,50000,0,0,0,0,0.00,0.00,0.00,0.00
2014-06-08 13:20:00,0,49797,0,0.00,0,0,0,0,48706,50000,425,50000,0,0,0,0,0.00,0.00,0.00,0.00
2014-06-08 13:30:00,0,50000,0,0.00,0,0,0,0,50000,50000,0,50000,0,0,0,0,0.00,0.00,0.00,0.00
2014-06-08 13:40:00,0,50000,0,0.00,0,0,0,0,50000,50000,0,50000,0,0,0,0,0.00,0.00,0.00,0.00
2014-06-08 13:50:00,0,48905,12,0.18,0,0,0,0,42562,50000,2359,50000,0,61,24,0,0.00,1.00,0.37,0.00
2014-06-08 14:00:00,0,50000,30,0.04,0,0,0,0,50000,50000,0,50000,0,61,30,30,0.00,0.25,0.09,0.00
2014-06-08 14:10:00,0,50000,0,0.00,0,0,0,0,50000,50000,0,50000,0,0,0,0,0.00,0.00,0.00,0.00
2014-06-08 14:20:00,0,50000,0,0.00,0,0,0,0,50000,50000,0,50000,0,0,0,0,0.00,0.00,0.00,0.00
2014-06-08 14:30:00,0,49980,0,0.00,0,0,0,0,49803,50000,59,50000,0,0,0,0,0.00,0.00,0.00,0.00
2014-06-08 14:40:00,0,49850,0,0.00,0,0,0,0,48500,50000,450,50000,0,0,0,0,0.00,0.00,0.00,0.00
2014-06-08 14:50:00,0,50000,0,0.00,0,0,0,0,50000,50000,0,50000,0,0,0,0,0.00,0.00,0.00,0.00
2014-06-08 15:00:00,0,49998,0,0.00,0,0,0,0,49977,50000,7,50000,0,0,0,0,0.00,0.00,0.00,0.00
2014-06-08 15:10:00,0,50000,0,0.00,0,0,0,0,50000,50000,0,50000,0,0,0,0,0.00,0.00,0.00,0.00
2014-06-08 15:20:00,0,49837,0,0.00,0,0,0,0,48373,50000,488,50000,0,0,0,0,0.00,0.00,0.00,0.00
2014-06-08 15:30:00,0,50000,0,0.00,0,0,0,0,50000,50000,0,50000,0,0,0,0,0.00,0.00,0.00,0.00
2014-06-08 15:40:00,0,50000,0,0.00,0,0,0,0,50000,50000,0,50000,0,0,0,0,0.00,0.00,0.00,0.00
2014-06-08 15:50:00,0,49944,0,0.00,0,0,0,0,49445,50000,166,50000,0,0,0,0,0.00,0.00,0.00,0.00
2014-06-08 16:00:00,0,50000,0,0.00,0,0,0,0,50000,50000,0,50000,0,0,0,0,0.00,0.00,0.00,0.00
2014-06-08 16:10:00,0,49949,0,0.00,0,0,0,0,49494,50000,152,50000,0,0,0,0,0.00,0.00,0.00,0.00
2014-06-08 16:20:00,0,50000,0,0.00,0,0,0,0,50000,50000,0,50000,0,0,0,0,0.00,0.00,0.00,0.00
2014-06-08 16:30:00,0,50000,0,0.00,0,0,0,0,50000,50000,0,50000,0,0,0,0,0.00,0.00,0.00,0.00
2014-06-08 16:40:00,0,49996,0,0.00,0,0,0,0,49957,50000,13,50000,0,0,0,0,0.00,0.00,0.00,0.00
2014-06-08 16:50:00,0,49419,0,0.00,0,0,0,0,44692,50000,1583,50000,0,0,0,0,0.00,0.00,0.00,0.00
2014-06-08 17:00:00,0,49866,0,0.00,0,0,0,0,48879,50000,335,50000,0,0,0,0,0.00,0.00,0.00,0.00
2014-06-08 17:10:00,0,49672,0,0.00,0,0,0,0,46723,50000,983,50000,0,0,0,0,0.00,0.00,0.00,0.00
2014-06-08 17:20:00,0,50000,0,0.00,0,0,0,0,50000,50000,0,50000,0,0,0,0,0.00,0.00,0.00,0.00
2014-06-08 17:30:00,0,49962,0,0.00,0,0,0,0,49616,50000,115,50000,0,0,0,0,0.00,0.00,0.00,0.00
2014-06-08 17:40:00,0,49945,0,0.00,0,0,0,0,49448,50000,166,50000,0,0,0,0,0.00,0.00,0.00,0.00
2014-06-08 17:50:00,0,50000,0,0.00,0,0,0,0,50000,50000,0,50000,0,0,0,0,0.00,0.00,0.00,0.00
2014-06-08 18:00:00,0,49858,0,0.00,0,0,0,0,48579,50000,426,50000,0,0,0,0,0.00,0.00,0.00,0.00
2014-06-08 18:10:00,0,50000,0,0.00,0,0,0,0,50000,50000,0,50000,0,0,0,0,0.00,0.00,0.00,0.00
2014-06-08 18:20:00,0,49948,0,0.00,0,0,0,0,49485,50000,154,50000,0,0,0,0,0.00,0.00,0.00,0.00
2014-06-08 18:30:00,0,49816,0,0.00,0,0,0,0,48590,50000,428,50000,0,0,0,0,0.00,0.00,0.00,0.00
2014-06-08 18:40:00,0,49823,0,0.00,0,0,0,0,48378,50000,484,50000,0,0,0,0,0.00,0.00,0.00,0.00
2014-06-08 18:50:00,0,49755,0,0.00,0,0,0,0,47552,50000,734,50000,0,0,0,0,0.00,0.00,0.00,0.00
2014-06-08 19:00:00,0,49102,0,0.00,0,0,0,0,44494,50000,1637,50000,0,0,0,0,0.00,0.00,0.00,0.00
2014-06-08 19:10:00,0,48935,0,0.00,0,0,0,0,43963,50000,1997,50000,0,0,0,0,0.00,0.00,0.00,0.00
2014-06-08 19:20:00,0,49604,0,0.00,0,0,0,0,46944,50000,927,50000,0,0,0,0,0.00,0.00,0.00,0.00
2014-06-08 19:30:00,0,49833,0,0.00,0,0,0,0,48381,50000,484,50000,0,0,0,0,0.00,0.00,0.00,0.00
2014-06-08 19:40:00,0,49188,0,0.00,0,0,0,0,46655,50000,1138,50000,0,0,0,0,0.00,0.00,0.00,0.00
2014-06-08 19:50:00,0,48409,0,0.00,0,0,0,0,43573,50000,2037,49096,0,0,0,0,0.00,0.00,0.00,0.00
2014-06-08 20:00:00,0,48626,0,0.00,0,0,0,0,44920,50000,1838,49508,0,0,0,0,0.00,0.00,0.00,0.00
2014-06-08 20:10:00,0,47869,0,0.00,0,0,0,0,39906,50000,3888,50000,0,0,0,0,0.00,0.00,0.00,0.00
2014-06-08 20:20:00,0,49775,0,0.00,0,0,0,0,48875,50000,450,50000,0,0,0,0,0.00,0.00,0.00,0.00
2014-06-08 20:30:00,0,48734,0,0.00,0,0,0,0,44607,50000,1767,49578,0,0,0,0,0.00,0.00,0.00,0.00
2014-06-08 20:40:00,0,45274,0,0.00,0,0,0,0,39751,50000,4380,45360,0,0,0,0,0.00,0.00,0.00,0.00
2014-06-08 20:50:00,0,48763,0,0.00,0,0,0,0,44674,50000,1595,49226,0,0,0,0,0.00,0.00,0.00,0.00
2014-06-08 21:00:00,0,49089,0,0.00,0,0,0,0,46347,50000,1431,50000,0,0,0,0,0.00,0.00,0.00,0.00
2014-06-08 21:10:00,0,48920,0,0.00,0,0,0,0,45294,50000,1653,50000,0,0,0,0,0.00,0.00,0.00,0.00
2014-06-08 21:20:00,0,48693,0,0.00,0,0,0,0,43152,50000,2333,50000,0,0,0,0,0.00,0.00,0.00,0.00
2014-06-08 21:30:00,0,48106,0,0.00,0,0,0,0,41444,50000,3057,50000,0,0,0,0,0.00,0.00,0.00,0.00
2014-06-08 21:40:00,0,47645,0,0.00,0,0,0,0,36423,50000,4697,50000,0,0,0,0,0.00,0.00,0.00,0.00
2014-06-08 21:50:00,0,48405,0,0.00,0,0,0,0,40205,50000,2906,49976,0,0,0,0,0.00,0.00,0.00,0.00
2014-06-08 22:00:00,0,47315,0,0.00,0,0,0,0,42513,50000,2903,48062,0,0,0,0,0.00,0.00,0.00,0.00
2014-06-08 22:10:00,0,44022,0,0.00,0,0,0,0,31382,50000,6000,46392,0,0,0,0,0.00,0.00,0.00,0.00
2014-06-08 22:20:00,0,42242,0,0.00,0,0,0,0,30848,49983,5678,44828,0,0,0,0,0.00,0.00,0.00,0.00
2014-06-08 22:30:00,0,43331,0,0.00,0,0,0,0,33209,50000,5324,44194,0,0,0,0,0.00,0.00,0.00,0.00
2014-06-08 22:40:00,0,43934,0,0.00,0,0,0,0,33583,50000,5473,44576,0,0,0,0,0.00,0.00,0.00,0.00
2014-06-08 22:50:00,0,48182,0,0.00,0,0,0,0,41103,50000,2997,50000,0,0,0,0,0.00,0.00,0.00,0.00
2014-06-08 23:00:00,0,47086,0,0.00,0,0,0,0,38957,50000,3579,49091,0,0,0,0,0.00,0.00,0.00,0.00
2014-06-08 23:10:00,0,46142,0,0.00,0,0,0,0,36170,50000,4296,47218,0,0,0,0,0.00,0.00,0.00,0.00
2014-06-08 23:20:00,0,41798,0,0.00,0,0,0,0,28483,50000,6418,41015,0,0,0,0,0.00,0.00,0.00,0.00
2014-06-08 23:30:00,0,40500,0,0.00,0,0,0,0,29658,50000,7229,39150,0,0,0,0,0.00,0.00,0.00,0.00
2014-06-08 23:40:00,0,40326,0,0.00,0,0,0,0,33160,48493,5223,40990,0,0,0,0,0.00,0.00,0.00,0.00
2014-06-08 23:50:00,0,43948,0,0.00,0,0,0,0,33557,50000,5660,44797,0,0,0,0,0.00,0.00,0.00,0.00
